Location: Glencliff
(36.1226°N, 86.7183°W)
Time: 11:01:39
(UTC+00:00)

Unknown - Pass Details

Date: 25 August 2019
Orbit: 546 x 554 km, 53.0° (Epoch: 18 September)

Event Time Altitude Azimuth Distance (km) Brightness Sun altitude
Rises 01:13:22 0° 309° (NW) 2,723 8.8 -10.0°
Reaches altitude 10° 01:15:37 10° 306° (NW) 1,827 7.7 -10.4°
Maximum altitude 01:19:42 57° 228° (SW) 651 4.1 -11.2°
Enters shadow 01:23:28 12° 150° (SSE) 1,710 5.7 -11.9°
